,,PA_Meas_PMT16A,,PR_Meas_QMR101_102,,RH_Meas_QMH101,,SR_Meas_QMS101,,TA_Meas_QMH101,,GenWind,,GenWind,
time,status,PA,status,PR,status,RH,status,SR,status,TA,status,DirAvg,status,SpdAvg,
2012-10-22, 00:00:04,VALID,917.794,VALID,0,VALID,97.4273,VALID,0,VALID,19.2363,VALID,124,VALID,0,
2012-10-22, 00:01:04,VALID,917.792,VALID,0,VALID,97.4425,VALID,0,VALID,19.2377,VALID,124,VALID,0,
2012-10-22, 00:02:04,VALID,917.777,VALID,0,VALID,97.4273,VALID,0,VALID,19.2572,VALID,124,VALID,0,
2012-10-22, 00:03:05,VALID,917.772,VALID,0,VALID,97.4273,VALID,0,VALID,19.2377,VALID,124,VALID,0,
2012-10-22, 00:04:05,VALID,917.783,VALID,0,VALID,97.4273,VALID,0,VALID,19.1987,VALID,124,VALID,0,
2012-10-22, 00:05:05,VALID,917.765,VALID,0,VALID,97.4273,VALID,0,VALID,19.2377,VALID,124,VALID,0,
2012-10-22, 00:06:05,VALID,917.793,VALID,0,VALID,97.412,VALID,0,VALID,19.2182,VALID,124,VALID,0,
2012-10-22, 00:07:05,VALID,917.776,VALID,0,VALID,97.4044,VALID,0,VALID,19.1987,VALID,124,VALID,0,
2012-10-22, 00:08:05,VALID,917.755,VALID,0,VALID,97.4273,VALID,0,VALID,19.1597,VALID,124,VALID,0,
2012-10-22, 00:09:05,VALID,917.738,VALID,0,VALID,97.4044,VALID,0,VALID,19.1597,VALID,124,VALID,0,
2012-10-22, 00:10:05,VALID,917.732,VALID,0,VALID,97.412,VALID,0,VALID,19.1388,VALID,124,VALID,0,
2012-10-22, 00:11:05,VALID,917.716,VALID,0,VALID,97.4196,VALID,0,VALID,19.1597,VALID,124,VALID,0,
2012-10-22, 00:12:05,VALID,917.713,VALID,0,VALID,97.412,VALID,0,VALID,19.1597,VALID,124,VALID,0,
2012-10-22, 00:13:05,VALID,917.693,VALID,0,VALID,97.3968,VALID,0,VALID,19.1597,VALID,126,VALID,0,
2012-10-22, 00:14:05,VALID,917.655,VALID,0,VALID,97.412,VALID,0,VALID,19.1792,VALID,130,VALID,0,
2012-10-22, 00:15:05,VALID,917.642,VALID,0,VALID,97.3891,VALID,0,VALID,19.1987,VALID,123,VALID,0,
2012-10-22, 00:16:05,VALID,917.615,VALID,0,VALID,97.3586,VALID,0,VALID,19.1792,VALID,123,VALID,0,
2012-10-22, 00:17:05,VALID,917.624,VALID,0,VALID,97.3358,VALID,0,VALID,19.1792,VALID,123,VALID,0,
2012-10-22, 00:18:05,VALID,917.607,VALID,0,VALID,97.3281,VALID,0,VALID,19.1792,VALID,123,VALID,0,
2012-10-22, 00:19:05,VALID,917.586,VALID,0,VALID,97.3358,VALID,0,VALID,19.1792,VALID,123,VALID,0,
2012-10-22, 00:20:05,VALID,917.609,VALID,0,VALID,97.3434,VALID,0,VALID,19.1987,VALID,123,VALID,0,
2012-10-22, 00:21:05,VALID,917.603,VALID,0,VALID,97.3205,VALID,0,VALID,19.1987,VALID,123,VALID,0,
2012-10-22, 00:22:05,VALID,917.564,VALID,0,VALID,97.3129,VALID,0,VALID,19.1987,VALID,123,VALID,0,
2012-10-22, 00:23:05,VALID,917.585,VALID,0,VALID,97.3053,VALID,0,VALID,19.1987,VALID,123,VALID,0,
2012-10-22, 00:24:05,VALID,917.568,VALID,0,VALID,97.2824,VALID,0,VALID,19.2182,VALID,123,VALID,0,
2012-10-22, 00:25:05,VALID,917.544,VALID,0,VALID,97.2595,VALID,0,VALID,19.1987,VALID,123,VALID,0,
2012-10-22, 00:26:05,VALID,917.54,VALID,0,VALID,97.2977,VALID,0,VALID,19.1987,VALID,123,VALID,0,
2012-10-22, 00:27:05,VALID,917.522,VALID,0,VALID,97.2824,VALID,0,VALID,19.2182,VALID,123,VALID,0,
2012-10-22, 00:28:05,VALID,917.531,VALID,0.2,VALID,97.2824,VALID,0,VALID,19.1987,VALID,123,VALID,0,
2012-10-22, 00:29:05,VALID,917.507,VALID,0,VALID,97.2824,VALID,0,VALID,19.1987,VALID,123,VALID,0,
2012-10-22, 00:30:05,VALID,917.513,VALID,0,VALID,97.29,VALID,0,VALID,19.2197,VALID,123,VALID,0,
2012-10-22, 00:31:05,VALID,917.471,VALID,0,VALID,97.2672,VALID,0,VALID,19.2002,VALID,123,VALID,0,
2012-10-22, 00:32:05,VALID,917.476,VALID,0,VALID,97.2367,VALID,0,VALID,19.1792,VALID,123,VALID,0,
2012-10-22, 00:33:05,VALID,917.456,VALID,0,VALID,97.2748,VALID,0,VALID,19.1597,VALID,123,VALID,0,
2012-10-22, 00:34:05,VALID,917.463,VALID,0.2,VALID,97.2595,VALID,0,VALID,19.1792,VALID,123,VALID,0,
2012-10-22, 00:35:05,VALID,917.456,VALID,0,VALID,97.229,VALID,0,VALID,19.1792,VALID,130,VALID,0,
2012-10-22, 00:36:05,VALID,917.429,VALID,0,VALID,97.2595,VALID,0,VALID,19.1792,VALID,130,VALID,0,
2012-10-22, 00:37:05,VALID,917.402,VALID,0,VALID,97.2672,VALID,0,VALID,19.1792,VALID,127,VALID,0,
2012-10-22, 00:38:05,VALID,917.403,VALID,0,VALID,97.2443,VALID,0,VALID,19.2002,VALID,124,VALID,0,
2012-10-22, 00:39:05,VALID,917.372,VALID,0,VALID,97.2672,VALID,0,VALID,19.2002,VALID,132,VALID,0,
2012-10-22, 00:40:05,VALID,917.377,VALID,0,VALID,97.2595,VALID,0,VALID,19.1807,VALID,128,VALID,0,
2012-10-22, 00:41:05,VALID,917.33,VALID,0,VALID,97.2519,VALID,0,VALID,19.1792,VALID,113,VALID,0,
2012-10-22, 00:42:05,VALID,917.359,VALID,0,VALID,97.2672,VALID,0,VALID,19.1597,VALID,113,VALID,0,
2012-10-22, 00:43:05,VALID,917.328,VALID,0,VALID,97.2672,VALID,0,VALID,19.1597,VALID,136,VALID,0,
2012-10-22, 00:44:05,VALID,917.321,VALID,0.2,VALID,97.2595,VALID,0,VALID,19.1807,VALID,115,VALID,0,
2012-10-22, 00:45:05,VALID,917.316,VALID,0,VALID,97.2519,VALID,0,VALID,19.1792,VALID,115,VALID,0,
2012-10-22, 00:46:05,VALID,917.299,VALID,0,VALID,97.2748,VALID,0,VALID,19.1597,VALID,126,VALID,0,
2012-10-22, 00:47:05,VALID,917.287,VALID,0,VALID,97.2672,VALID,0,VALID,19.1597,VALID,130,VALID,0,
2012-10-22, 00:48:05,VALID,917.285,VALID,0,VALID,97.29,VALID,0,VALID,19.1792,VALID,135,VALID,0,
2012-10-22, 00:49:05,VALID,917.291,VALID,0,VALID,97.2824,VALID,0,VALID,19.1807,VALID,121,VALID,0,
2012-10-22, 00:50:05,VALID,917.288,VALID,0,VALID,97.3129,VALID,0,VALID,19.1807,VALID,118,VALID,0,
2012-10-22, 00:51:05,VALID,917.27,VALID,0.2,VALID,97.3053,VALID,0,VALID,19.1597,VALID,120,VALID,0,
2012-10-22, 00:52:05,VALID,917.248,VALID,0,VALID,97.29,VALID,0,VALID,19.1792,VALID,129,VALID,0,
2012-10-22, 00:53:05,VALID,917.278,VALID,0,VALID,97.2977,VALID,0,VALID,19.1597,VALID,129,VALID,0,
2012-10-22, 00:54:05,VALID,917.247,VALID,0,VALID,97.3281,VALID,0,VALID,19.1402,VALID,126,VALID,0,
2012-10-22, 00:55:05,VALID,917.232,VALID,0,VALID,97.3205,VALID,0,VALID,19.1402,VALID,120,VALID,0,
2012-10-22, 00:56:05,VALID,917.219,VALID,0,VALID,97.3129,VALID,0,VALID,19.1402,VALID,138,VALID,0,
2012-10-22, 00:57:05,VALID,917.228,VALID,0,VALID,97.3358,VALID,0,VALID,19.1597,VALID,117,VALID,0,
2012-10-22, 00:58:05,VALID,917.177,VALID,0,VALID,97.3281,VALID,0,VALID,19.1597,VALID,156,VALID,0,
2012-10-22, 00:59:05,VALID,917.202,VALID,0,VALID,97.3434,VALID,0,VALID,19.1597,VALID,154,VALID,0,
2012-10-22, 01:00:05,VALID,917.16,VALID,0,VALID,97.3586,VALID,0,VALID,19.1388,VALID,139,VALID,0,
2012-10-22, 01:01:05,VALID,917.136,VALID,0,VALID,97.351,VALID,0,VALID,19.1402,VALID,139,VALID,0,
2012-10-22, 01:02:05,VALID,917.103,VALID,0,VALID,97.3205,VALID,0,VALID,19.1597,VALID,148,VALID,0,
2012-10-22, 01:03:05,VALID,917.084,VALID,0.2,VALID,97.3586,VALID,0,VALID,19.1402,VALID,160,VALID,0,
2012-10-22, 01:04:05,VALID,917.029,VALID,0,VALID,97.351,VALID,0,VALID,19.1612,VALID,160,VALID,0,
2012-10-22, 01:05:05,VALID,917.019,VALID,0,VALID,97.351,VALID,0,VALID,19.1402,VALID,154,VALID,0,
2012-10-22, 01:06:05,VALID,916.989,VALID,0,VALID,97.351,VALID,0.107441,VALID,19.1388,VALID,154,VALID,0,
2012-10-22, 01:07:05,VALID,916.971,VALID,0,VALID,97.351,VALID,0.107441,VALID,19.1388,VALID,154,VALID,0,
2012-10-22, 01:08:05,VALID,916.922,VALID,0,VALID,97.3053,VALID,0,VALID,19.1388,VALID,154,VALID,0,
2012-10-22, 01:09:05,VALID,916.943,VALID,0,VALID,97.3129,VALID,0,VALID,19.1388,VALID,154,VALID,0,
2012-10-22, 01:10:05,VALID,916.927,VALID,0,VALID,97.3053,VALID,0.107441,VALID,19.1583,VALID,154,VALID,0,
2012-10-22, 01:11:05,VALID,916.884,VALID,0,VALID,97.3205,VALID,0,VALID,19.1388,VALID,154,VALID,0,
2012-10-22, 01:12:05,VALID,916.864,VALID,0,VALID,97.2977,VALID,0,VALID,19.1583,VALID,154,VALID,0,
2012-10-22, 01:13:05,VALID,916.823,VALID,0,VALID,97.3129,VALID,0.107441,VALID,19.1778,VALID,154,VALID,0,
2012-10-22, 01:14:05,VALID,916.805,VALID,0,VALID,97.2824,VALID,0.107441,VALID,19.1583,VALID,154,VALID,0,
2012-10-22, 01:15:05,VALID,916.798,VALID,0,VALID,97.2977,VALID,0.107441,VALID,19.1778,VALID,154,VALID,0,
2012-10-22, 01:16:05,VALID,916.777,VALID,0,VALID,97.2519,VALID,0.107441,VALID,19.1792,VALID,126,VALID,0,
2012-10-22, 01:17:05,VALID,916.738,VALID,0,VALID,97.2595,VALID,0.107441,VALID,19.1583,VALID,126,VALID,0,
2012-10-22, 01:18:05,VALID,916.737,VALID,0,VALID,97.2443,VALID,0.107441,VALID,19.1388,VALID,126,VALID,0,
2012-10-22, 01:19:05,VALID,916.721,VALID,0,VALID,97.2367,VALID,0.107441,VALID,19.1583,VALID,126,VALID,0,
2012-10-22, 01:20:05,VALID,916.689,VALID,0,VALID,97.2367,VALID,0,VALID,19.1583,VALID,126,VALID,0,
2012-10-22, 01:21:05,VALID,916.661,VALID,0,VALID,97.229,VALID,0,VALID,19.1597,VALID,126,VALID,0,
2012-10-22, 01:22:05,VALID,916.651,VALID,0,VALID,97.229,VALID,0,VALID,19.1597,VALID,126,VALID,0,
2012-10-22, 01:23:05,VALID,916.616,VALID,0.2,VALID,97.2367,VALID,0,VALID,19.1583,VALID,126,VALID,0,
2012-10-22, 01:24:05,VALID,916.587,VALID,0,VALID,97.229,VALID,0,VALID,19.1792,VALID,126,VALID,0,
2012-10-22, 01:25:05,VALID,916.573,VALID,0,VALID,97.2443,VALID,0,VALID,19.1792,VALID,126,VALID,0,
2012-10-22, 01:26:05,VALID,916.552,VALID,0,VALID,97.229,VALID,0,VALID,19.1792,VALID,126,VALID,0,
2012-10-22, 01:27:05,VALID,916.554,VALID,0,VALID,97.2672,VALID,0,VALID,19.1597,VALID,126,VALID,0,
2012-10-22, 01:28:05,VALID,916.533,VALID,0,VALID,97.229,VALID,0,VALID,19.1583,VALID,126,VALID,0,
2012-10-22, 01:29:05,VALID,916.52,VALID,0,VALID,97.229,VALID,0,VALID,19.1583,VALID,126,VALID,0,
2012-10-22, 01:30:05,VALID,916.492,VALID,0,VALID,97.229,VALID,0,VALID,19.1388,VALID,126,VALID,0,
2012-10-22, 01:31:05,VALID,916.499,VALID,0,VALID,97.2367,VALID,0,VALID,19.1597,VALID,126,VALID,0,
2012-10-22, 01:32:05,VALID,916.467,VALID,0,VALID,97.2672,VALID,0,VALID,19.1193,VALID,126,VALID,0,
2012-10-22, 01:33:05,VALID,916.465,VALID,0,VALID,97.2214,VALID,0,VALID,19.1597,VALID,126,VALID,0,
2012-10-22, 01:34:05,VALID,916.422,VALID,0,VALID,97.2367,VALID,0,VALID,19.1792,VALID,126,VALID,0,
2012-10-22, 01:35:05,VALID,916.413,VALID,0,VALID,97.2443,VALID,0,VALID,19.1597,VALID,126,VALID,0,
2012-10-22, 01:36:05,VALID,916.408,VALID,0,VALID,97.2367,VALID,0,VALID,19.1597,VALID,126,VALID,0,
2012-10-22, 01:37:05,VALID,916.409,VALID,0,VALID,97.229,VALID,0,VALID,19.1597,VALID,126,VALID,0,
2012-10-22, 01:38:05,VALID,916.415,VALID,0,VALID,97.2595,VALID,0,VALID,19.1193,VALID,126,VALID,0,
2012-10-22, 01:39:05,VALID,916.435,VALID,0,VALID,97.2138,VALID,0,VALID,19.1402,VALID,126,VALID,0,
2012-10-22, 01:40:05,VALID,916.41,VALID,0,VALID,97.2367,VALID,0,VALID,19.1402,VALID,126,VALID,0,
2012-10-22, 01:41:05,VALID,916.406,VALID,0,VALID,97.2062,VALID,0,VALID,19.1402,VALID,126,VALID,0,
2012-10-22, 01:42:05,VALID,916.402,VALID,0,VALID,97.2367,VALID,0,VALID,19.1402,VALID,126,VALID,0,
2012-10-22, 01:43:05,VALID,916.394,VALID,0,VALID,97.1986,VALID,0,VALID,19.1402,VALID,126,VALID,0,
2012-10-22, 01:44:05,VALID,916.366,VALID,0,VALID,97.2062,VALID,0,VALID,19.1207,VALID,126,VALID,0,
2012-10-22, 01:45:05,VALID,916.376,VALID,0,VALID,97.2062,VALID,0,VALID,19.1417,VALID,126,VALID,0,
2012-10-22, 01:46:05,VALID,916.386,VALID,0,VALID,97.1757,VALID,0,VALID,19.1207,VALID,126,VALID,0,
2012-10-22, 01:47:05,VALID,916.344,VALID,0,VALID,97.1909,VALID,0,VALID,19.1207,VALID,126,VALID,0,
2012-10-22, 01:48:05,VALID,916.343,VALID,0,VALID,97.1757,VALID,0,VALID,19.1207,VALID,126,VALID,0,
2012-10-22, 01:49:05,VALID,916.363,VALID,0,VALID,97.1452,VALID,0,VALID,19.1207,VALID,126,VALID,0,
2012-10-22, 01:50:05,VALID,916.36,VALID,0,VALID,97.1528,VALID,0,VALID,19.1207,VALID,126,VALID,0,
2012-10-22, 01:51:05,VALID,916.316,VALID,0,VALID,97.1071,VALID,0,VALID,19.1012,VALID,126,VALID,0,
2012-10-22, 01:52:05,VALID,916.325,VALID,0,VALID,97.1299,VALID,0,VALID,19.1012,VALID,126,VALID,0,
2012-10-22, 01:53:05,VALID,916.3,VALID,0,VALID,97.1223,VALID,0,VALID,19.1012,VALID,126,VALID,0,
2012-10-22, 01:54:05,VALID,916.249,VALID,0,VALID,97.1223,VALID,0,VALID,19.1207,VALID,126,VALID,0,
2012-10-22, 01:55:05,VALID,916.279,VALID,0,VALID,97.1299,VALID,0,VALID,19.1012,VALID,126,VALID,0,
2012-10-22, 01:56:05,VALID,916.262,VALID,0,VALID,97.1071,VALID,0,VALID,19.1012,VALID,126,VALID,0,
2012-10-22, 01:57:05,VALID,916.243,VALID,0,VALID,97.1071,VALID,0,VALID,19.0817,VALID,126,VALID,0,
2012-10-22, 01:58:05,VALID,916.227,VALID,0,VALID,97.0994,VALID,0,VALID,19.1012,VALID,126,VALID,0,
2012-10-22, 01:59:05,VALID,916.235,VALID,0,VALID,97.0842,VALID,0,VALID,19.1012,VALID,126,VALID,0,
2012-10-22, 02:00:05,VALID,916.235,VALID,0,VALID,97.0994,VALID,0,VALID,19.1012,VALID,126,VALID,0,
2012-10-22, 02:01:05,VALID,916.202,VALID,0,VALID,97.0842,VALID,0,VALID,19.1207,VALID,126,VALID,0,
2012-10-22, 02:02:05,VALID,916.222,VALID,0,VALID,97.0842,VALID,0,VALID,19.1207,VALID,126,VALID,0,
2012-10-22, 02:03:05,VALID,916.203,VALID,0,VALID,97.0766,VALID,0,VALID,19.1207,VALID,126,VALID,0,
2012-10-22, 02:04:05,VALID,916.182,VALID,0,VALID,97.0842,VALID,0,VALID,19.0998,VALID,126,VALID,0,
2012-10-22, 02:05:05,VALID,916.189,VALID,0,VALID,97.069,VALID,0,VALID,19.1207,VALID,126,VALID,0,
2012-10-22, 02:06:05,VALID,916.186,VALID,0,VALID,97.069,VALID,0,VALID,19.1012,VALID,126,VALID,0,
2012-10-22, 02:07:05,VALID,916.189,VALID,0,VALID,97.0385,VALID,0,VALID,19.0817,VALID,126,VALID,0,
2012-10-22, 02:08:05,VALID,916.227,VALID,0.2,VALID,97.0613,VALID,0,VALID,19.0817,VALID,126,VALID,0,
2012-10-22, 02:09:05,VALID,916.225,VALID,0,VALID,97.0461,VALID,0,VALID,19.0622,VALID,126,VALID,0,
2012-10-22, 02:10:05,VALID,916.207,VALID,0,VALID,97.0232,VALID,0,VALID,19.0622,VALID,126,VALID,0,
2012-10-22, 02:11:05,VALID,916.204,VALID,0,VALID,97.0308,VALID,0,VALID,19.0427,VALID,126,VALID,0,
2012-10-22, 02:12:05,VALID,916.197,VALID,0,VALID,97.0385,VALID,0,VALID,19.0427,VALID,126,VALID,0,
2012-10-22, 02:13:05,VALID,916.2,VALID,0,VALID,97.0385,VALID,0,VALID,19.0427,VALID,126,VALID,0,
2012-10-22, 02:14:05,VALID,916.187,VALID,0,VALID,97.0232,VALID,0,VALID,19.0427,VALID,126,VALID,0,
2012-10-22, 02:15:05,VALID,916.212,VALID,0,VALID,97.0613,VALID,0,VALID,19.0427,VALID,126,VALID,0,
2012-10-22, 02:16:05,VALID,916.187,VALID,0,VALID,97.0385,VALID,0,VALID,19.0232,VALID,126,VALID,0,
2012-10-22, 02:17:05,VALID,916.191,VALID,0,VALID,97.0385,VALID,0,VALID,19.0023,VALID,126,VALID,0,
2012-10-22, 02:18:05,VALID,916.165,VALID,0,VALID,97.069,VALID,0,VALID,19.0232,VALID,126,VALID,0,
2012-10-22, 02:19:05,VALID,916.178,VALID,0,VALID,97.0537,VALID,0,VALID,19.0232,VALID,126,VALID,0,
2012-10-22, 02:20:05,VALID,916.174,VALID,0,VALID,97.0537,VALID,0,VALID,19.0427,VALID,126,VALID,0,
2012-10-22, 02:21:05,VALID,916.168,VALID,0,VALID,97.0613,VALID,0,VALID,19.0232,VALID,126,VALID,0,
2012-10-22, 02:22:05,VALID,916.197,VALID,0,VALID,97.069,VALID,0,VALID,19.0442,VALID,126,VALID,0,
2012-10-22, 02:23:05,VALID,916.166,VALID,0,VALID,97.0461,VALID,0,VALID,18.9842,VALID,126,VALID,0,
2012-10-22, 02:24:05,VALID,916.146,VALID,0,VALID,97.0537,VALID,0,VALID,18.9842,VALID,126,VALID,0,
2012-10-22, 02:25:05,VALID,916.148,VALID,0,VALID,97.0461,VALID,0,VALID,18.9842,VALID,126,VALID,0,
2012-10-22, 02:26:05,VALID,916.167,VALID,0,VALID,97.0537,VALID,0,VALID,18.9842,VALID,126,VALID,0,
2012-10-22, 02:27:05,VALID,916.16,VALID,0,VALID,97.0613,VALID,0,VALID,18.9842,VALID,126,VALID,0,
2012-10-22, 02:28:05,VALID,916.164,VALID,0,VALID,97.069,VALID,0,VALID,19.0052,VALID,126,VALID,0,
2012-10-22, 02:29:05,VALID,916.156,VALID,0,VALID,97.0385,VALID,0,VALID,19.0037,VALID,126,VALID,0,
2012-10-22, 02:30:05,VALID,916.132,VALID,0,VALID,97.0461,VALID,0,VALID,19.0232,VALID,126,VALID,0,
2012-10-22, 02:31:05,VALID,916.16,VALID,0,VALID,97.0461,VALID,0,VALID,19.0232,VALID,131,VALID,0,
2012-10-22, 02:32:05,VALID,916.188,VALID,0,VALID,97.0385,VALID,0,VALID,19.0427,VALID,133,VALID,0,
2012-10-22, 02:33:05,VALID,916.174,VALID,0,VALID,97.008,VALID,0,VALID,19.0232,VALID,135,VALID,0,
2012-10-22, 02:34:05,VALID,916.21,VALID,0,VALID,96.9927,VALID,0,VALID,19.0442,VALID,140,VALID,0,
2012-10-22, 02:35:05,VALID,916.195,VALID,0,VALID,96.9775,VALID,0,VALID,19.0037,VALID,150,VALID,0,
2012-10-22, 02:36:05,VALID,916.2,VALID,0,VALID,96.9775,VALID,0,VALID,19.0037,VALID,133,VALID,0,
2012-10-22, 02:37:05,VALID,916.187,VALID,0,VALID,96.9698,VALID,0,VALID,19.0442,VALID,133,VALID,0,
2012-10-22, 02:38:05,VALID,916.182,VALID,0,VALID,96.947,VALID,0,VALID,19.0427,VALID,133,VALID,0,
2012-10-22, 02:39:05,VALID,916.166,VALID,0,VALID,96.9394,VALID,0,VALID,19.0427,VALID,133,VALID,0,
2012-10-22, 02:40:05,VALID,916.147,VALID,0,VALID,96.9012,VALID,0,VALID,19.0232,VALID,133,VALID,0,
2012-10-22, 02:41:05,VALID,916.178,VALID,0,VALID,96.8631,VALID,0,VALID,19.0232,VALID,133,VALID,0,
2012-10-22, 02:42:05,VALID,916.157,VALID,0,VALID,96.8707,VALID,0,VALID,19.0232,VALID,133,VALID,0,
2012-10-22, 02:43:05,VALID,916.193,VALID,0,VALID,96.8479,VALID,0,VALID,19.0232,VALID,136,VALID,0,
2012-10-22, 02:44:04,VALID,916.184,VALID,0,VALID,96.8555,VALID,0,VALID,19.0427,VALID,136,VALID,0,
2012-10-22, 02:45:04,VALID,916.138,VALID,0,VALID,96.8403,VALID,0,VALID,19.0622,VALID,136,VALID,0,
2012-10-22, 02:46:04,VALID,916.167,VALID,0,VALID,96.8403,VALID,0,VALID,19.0622,VALID,136,VALID,0,
2012-10-22, 02:47:04,VALID,916.11,VALID,0,VALID,96.8326,VALID,0,VALID,19.0232,VALID,136,VALID,0,
2012-10-22, 02:48:04,VALID,916.119,VALID,0,VALID,96.7793,VALID,0,VALID,19.0232,VALID,136,VALID,0,
2012-10-22, 02:49:04,VALID,916.107,VALID,0,VALID,96.7564,VALID,0,VALID,19.0247,VALID,148,VALID,0,
2012-10-22, 02:50:04,VALID,916.117,VALID,0,VALID,96.764,VALID,0,VALID,18.9842,VALID,148,VALID,0,
2012-10-22, 02:51:04,VALID,916.131,VALID,0,VALID,96.764,VALID,0.107441,VALID,18.9828,VALID,148,VALID,0,
2012-10-22, 02:52:04,VALID,916.141,VALID,0,VALID,96.7564,VALID,0.107441,VALID,18.9633,VALID,141,VALID,0,
2012-10-22, 02:53:04,VALID,916.128,VALID,0,VALID,96.764,VALID,0.107441,VALID,18.9633,VALID,151,VALID,0,
2012-10-22, 02:54:04,VALID,916.138,VALID,0,VALID,96.764,VALID,0,VALID,18.9438,VALID,151,VALID,0,
2012-10-22, 02:55:04,VALID,916.12,VALID,0,VALID,96.7793,VALID,0,VALID,18.9438,VALID,151,VALID,0,
2012-10-22, 02:56:04,VALID,916.134,VALID,0,VALID,96.7945,VALID,0,VALID,18.9647,VALID,134,VALID,0,
2012-10-22, 02:57:04,VALID,916.125,VALID,0,VALID,96.825,VALID,0,VALID,18.9633,VALID,134,VALID,0,
2012-10-22, 02:58:04,VALID,916.15,VALID,0,VALID,96.8403,VALID,0.107441,VALID,19.0037,VALID,134,VALID,0,
2012-10-22, 02:59:04,VALID,916.119,VALID,0,VALID,96.8631,VALID,0.107441,VALID,18.9842,VALID,134,VALID,0,
2012-10-22, 03:00:04,VALID,916.123,VALID,0,VALID,96.8326,VALID,0.107441,VALID,18.9633,VALID,134,VALID,0,
2012-10-22, 03:01:04,VALID,916.112,VALID,0,VALID,96.8403,VALID,0.107441,VALID,18.9647,VALID,134,VALID,0,
2012-10-22, 03:02:04,VALID,916.134,VALID,0,VALID,96.8326,VALID,0.107441,VALID,18.9633,VALID,134,VALID,0,
2012-10-22, 03:03:04,VALID,916.116,VALID,0,VALID,96.8479,VALID,0.107441,VALID,18.9633,VALID,134,VALID,0,
2012-10-22, 03:04:04,VALID,916.115,VALID,0,VALID,96.8403,VALID,0,VALID,18.9647,VALID,130,VALID,0,
2012-10-22, 03:05:04,VALID,916.108,VALID,0,VALID,96.8631,VALID,0.107441,VALID,19.0037,VALID,133,VALID,0,
2012-10-22, 03:06:04,VALID,916.146,VALID,0,VALID,96.8631,VALID,0,VALID,19.0037,VALID,143,VALID,0,
2012-10-22, 03:07:04,VALID,916.178,VALID,0,VALID,96.8936,VALID,0,VALID,18.9842,VALID,131,VALID,0,
2012-10-22, 03:08:04,VALID,916.15,VALID,0,VALID,96.9012,VALID,0,VALID,19.0247,VALID,133,VALID,0,
2012-10-22, 03:09:04,VALID,916.169,VALID,0,VALID,96.9089,VALID,0,VALID,19.0037,VALID,135,VALID,0,
2012-10-22, 03:10:04,VALID,916.194,VALID,0,VALID,96.9165,VALID,0,VALID,18.9842,VALID,129,VALID,0,
2012-10-22, 03:11:04,VALID,916.181,VALID,0,VALID,96.9012,VALID,0,VALID,19.0052,VALID,123,VALID,0,
2012-10-22, 03:12:04,VALID,916.193,VALID,0,VALID,96.9012,VALID,0,VALID,18.9842,VALID,123,VALID,0,
2012-10-22, 03:13:04,VALID,916.173,VALID,0,VALID,96.8936,VALID,0,VALID,18.9647,VALID,123,VALID,0,
2012-10-22, 03:14:04,VALID,916.172,VALID,0,VALID,96.8936,VALID,0,VALID,18.9647,VALID,123,VALID,0,
2012-10-22, 03:15:04,VALID,916.182,VALID,0,VALID,96.9012,VALID,0,VALID,18.9257,VALID,123,VALID,0,
2012-10-22, 03:16:04,VALID,916.177,VALID,0,VALID,96.9012,VALID,0,VALID,18.9467,VALID,123,VALID,0,
2012-10-22, 03:17:04,VALID,916.177,VALID,0,VALID,96.886,VALID,0,VALID,18.9257,VALID,123,VALID,0,
2012-10-22, 03:18:04,VALID,916.17,VALID,0,VALID,96.8936,VALID,0,VALID,18.8867,VALID,123,VALID,0,
2012-10-22, 03:19:04,VALID,916.181,VALID,0,VALID,96.8936,VALID,0,VALID,18.8477,VALID,123,VALID,0,
2012-10-22, 03:20:04,VALID,916.145,VALID,0,VALID,96.9165,VALID,0,VALID,18.8282,VALID,123,VALID,0,
2012-10-22, 03:21:04,VALID,916.163,VALID,0,VALID,96.9012,VALID,0.107441,VALID,18.8477,VALID,123,VALID,0,
2012-10-22, 03:22:04,VALID,916.161,VALID,0,VALID,96.9317,VALID,0,VALID,18.8268,VALID,123,VALID,0,
2012-10-22, 03:23:04,VALID,916.187,VALID,0,VALID,96.9622,VALID,0,VALID,18.8463,VALID,123,VALID,0,
2012-10-22, 03:24:04,VALID,916.198,VALID,0,VALID,96.9927,VALID,0,VALID,18.8672,VALID,128,VALID,0,
2012-10-22, 03:25:04,VALID,916.187,VALID,0,VALID,97.0308,VALID,0,VALID,18.8658,VALID,128,VALID,0,
2012-10-22, 03:26:04,VALID,916.194,VALID,0,VALID,97.0385,VALID,0,VALID,18.8867,VALID,128,VALID,0,
2012-10-22, 03:27:04,VALID,916.213,VALID,0,VALID,97.0918,VALID,0,VALID,18.8867,VALID,128,VALID,0,
2012-10-22, 03:28:04,VALID,916.196,VALID,0,VALID,97.0842,VALID,0,VALID,18.9048,VALID,128,VALID,0,
2012-10-22, 03:29:04,VALID,916.208,VALID,0,VALID,97.0918,VALID,0,VALID,18.9062,VALID,128,VALID,0,
2012-10-22, 03:30:04,VALID,916.22,VALID,0,VALID,97.0842,VALID,0,VALID,18.9257,VALID,128,VALID,0,
2012-10-22, 03:31:04,VALID,916.208,VALID,0,VALID,97.1071,VALID,0,VALID,18.8853,VALID,148,VALID,0,
2012-10-22, 03:32:04,VALID,916.218,VALID,0,VALID,97.1223,VALID,0,VALID,18.9438,VALID,149,VALID,0,
2012-10-22, 03:33:04,VALID,916.237,VALID,0,VALID,97.1147,VALID,0,VALID,18.9452,VALID,149,VALID,0,
2012-10-22, 03:34:04,VALID,916.208,VALID,0,VALID,97.1376,VALID,0,VALID,18.9647,VALID,149,VALID,0,
2012-10-22, 03:35:04,VALID,916.225,VALID,0,VALID,97.1376,VALID,0,VALID,18.9842,VALID,176,VALID,0,
2012-10-22, 03:36:04,VALID,916.249,VALID,0,VALID,97.1528,VALID,0,VALID,18.9647,VALID,171,VALID,0,
2012-10-22, 03:37:04,VALID,916.248,VALID,0,VALID,97.1528,VALID,0,VALID,19.0037,VALID,160,VALID,0,
2012-10-22, 03:38:04,VALID,916.243,VALID,0,VALID,97.1604,VALID,0.107441,VALID,19.0232,VALID,160,VALID,0,
2012-10-22, 03:39:04,VALID,916.254,VALID,0,VALID,97.1833,VALID,0,VALID,19.0232,VALID,166,VALID,0,
2012-10-22, 03:40:04,VALID,916.255,VALID,0,VALID,97.1909,VALID,0,VALID,19.0218,VALID,177,VALID,0,
2012-10-22, 03:41:04,VALID,916.249,VALID,0,VALID,97.1757,VALID,0.107441,VALID,19.0622,VALID,167,VALID,0,
2012-10-22, 03:42:04,VALID,916.257,VALID,0,VALID,97.1986,VALID,0,VALID,19.0413,VALID,161,VALID,0,
2012-10-22, 03:43:04,VALID,916.232,VALID,0,VALID,97.1909,VALID,0.107441,VALID,19.0622,VALID,147,VALID,0,
2012-10-22, 03:44:04,VALID,916.244,VALID,0,VALID,97.2062,VALID,0,VALID,19.0413,VALID,169,VALID,0,
2012-10-22, 03:45:04,VALID,916.239,VALID,0,VALID,97.2367,VALID,0,VALID,19.0413,VALID,163,VALID,0,
2012-10-22, 03:46:04,VALID,916.241,VALID,0,VALID,97.1909,VALID,0,VALID,19.0427,VALID,166,VALID,0,
2012-10-22, 03:47:04,VALID,916.22,VALID,0,VALID,97.2138,VALID,0.107441,VALID,19.0218,VALID,155,VALID,0,
2012-10-22, 03:48:04,VALID,916.228,VALID,0,VALID,97.2443,VALID,0,VALID,19.0413,VALID,160,VALID,0,
2012-10-22, 03:49:04,VALID,916.228,VALID,0,VALID,97.2367,VALID,0.107441,VALID,19.0413,VALID,160,VALID,0,
2012-10-22, 03:50:04,VALID,916.271,VALID,0,VALID,97.2443,VALID,0.107441,VALID,19.0413,VALID,140,VALID,0,
2012-10-22, 03:51:04,VALID,916.246,VALID,0,VALID,97.2138,VALID,0,VALID,19.0427,VALID,132,VALID,0,
2012-10-22, 03:52:04,VALID,916.266,VALID,0,VALID,97.2519,VALID,0,VALID,19.0247,VALID,123,VALID,0,
2012-10-22, 03:53:04,VALID,916.264,VALID,0,VALID,97.2367,VALID,0,VALID,19.0247,VALID,123,VALID,0,
2012-10-22, 03:54:04,VALID,916.284,VALID,0,VALID,97.2443,VALID,0,VALID,19.0247,VALID,123,VALID,0,
2012-10-22, 03:55:04,VALID,916.294,VALID,0,VALID,97.229,VALID,0,VALID,19.0247,VALID,140,VALID,0,
2012-10-22, 03:56:04,VALID,916.291,VALID,0,VALID,97.2062,VALID,0,VALID,19.0247,VALID,130,VALID,0,
2012-10-22, 03:57:04,VALID,916.295,VALID,0,VALID,97.2214,VALID,0,VALID,19.0037,VALID,128,VALID,0,
2012-10-22, 03:58:04,VALID,916.297,VALID,0,VALID,97.229,VALID,0,VALID,19.0037,VALID,128,VALID,0,